Location: Newark
(40.9833°N, 0.0333°W)
Time: 18:46:53
(UTC+00:00)

Transit 4A - Pass Details

Date: 04 November 2020
Orbit: 862 x 982 km, 66.8° (Epoch: 23 November)

Event Time Altitude Azimuth Distance (km) Brightness Sun altitude
Rises 21:49:02 0° 333° (NNW) 3,693 11.5 -54.6°
Enters shadow 21:50:01 - 335° (NNW) 3,341 11.2 -54.8°
Reaches altitude 10° 21:51:43 10° 338° (NNW) 2,737 - -55.0°
Maximum altitude 21:57:58 52° 55° (NE) 1,184 - -55.9°
Drops below altitude 10° 22:04:04 10° 131° (SE) 2,669 - -56.8°
Sets 22:06:38 0° 136° (SE) 3,594 - -57.2°
